Regional Weather Roundup
Issued by NWS Albany, NY

Home | Current Version | Previous Version | Graphics & Text | Print | Product List | Glossary Off
Versions: 1 2 3 4 5 6 7 8 9 10 11 12 13 14 15 16 17 18 19 20 21 22 23 24 25 26 27 28 29 30 31 32 33 34 35 36 37 38 39 40 41 42 43 44 45 46 47 48 49 50

000
ASUS41 KALY 220810
RWRALY

NEW YORK STATE HOURLY WEATHER ROUNDUP
NATIONAL WEATHER SERVICE ALBANY NY
400 AM EDT TUE JUL 22 2014

NOTE: "FAIR" INDICATES FEW OR NO CLOUDS BELOW 12,000 FEET WITH NO
SIGNIFICANT WEATHER AND/OR NO OBSTRUCTIONS TO VISIBILITY.

NYZ032-033-038>043-046>054-057>066-NYZ062>081-220900-
EAST


CITY           SKY/WX    TMP DP  RH WIND       PRES   REMARKS
ALBANY         MOCLDY    70  64  81 S7        30.13S
GLENS FALLS    CLEAR     63  61  93 CALM      30.12S FOG
POUGHKEEPSIE   CLEAR     66  63  90 CALM      30.14S
NEWBURGH       CLEAR     66  64  94 CALM      30.17
MONTGOMERY     CLEAR     64  62  93 S3        30.16S
WHITE PLAINS   CLEAR     67  62  84 W3        30.16S
ISLIP          CLEAR     69  63  81 W3        30.15S
NEW YORK CITY  CLEAR     73  58  59 SW6       30.15F
CENTRAL PARK   CLEAR     72  60  66 CALM      30.19S
$$

NYZ005>009-017-018-044>046-055-056-220900-
CENTRAL


CITY           SKY/WX    TMP DP  RH WIND       PRES   REMARKS
FULTON         CLEAR     63  61  93 CALM      30.11S FOG
SYRACUSE       PTCLDY    68  65  90 CALM      30.11S
ROME           CLEAR     66  63  90 CALM      30.13R
ELMIRA         PTCLDY    71  67  87 CALM      30.14S
BINGHAMTON     CLOUDY    68  64  87 S3        30.18S
MONTICELLO     CLEAR     63  61  94 CALM      30.20S
$$

NYZ026>034-041>043-220900-
NORTH


CITY           SKY/WX    TMP DP  RH WIND       PRES   REMARKS
WATERTOWN      CLEAR     61  57  87 CALM      30.10S FOG
FORT DRUM      NOT AVBL
MASSENA        CLEAR     62  61  96 CALM      30.09S
SARANAC LAKE   FOG       57  56  96 CALM      30.15R VSB<1/4
PLATTSBURGH    CLEAR     63  62  97 CALM      30.09S
$$

NYZ001>004-010>016-019>021-220900-
WEST


CITY           SKY/WX    TMP DP  RH WIND       PRES   REMARKS
NIAGARA FALLS  CLEAR     63  60  90 CALM      30.11S
BUFFALO        CLEAR     64  60  87 SE5       30.12S
DUNKIRK        CLEAR     58  54  86 CALM      30.12S
JAMESTOWN      CLEAR     63  61  94 S3        30.17S
WELLSVILLE     MOCLDY    72  65  78 SW7       30.20S
ROCHESTER      PTCLDY    64  64 100 CALM      30.11F FOG
PENN YAN       CLEAR     69  67  93 SW6       30.13F
$$

             KEY
       WCI = WIND CHILL INDEX
       VSB = VISIBILITY
       HX  = HEAT INDEX
$$



USA.gov is the U.S. government's official web portal to all federal, state and local government web resources and services.